[[{"header":{"parameterUnit":"m.s-1","parameterCategory":1,"la1":30.2991,"la2":30.254,"lo1":-89.0895,"lo2":-89.0444,"dy":0.0017,"dx":0.0017,"nx":28,"ny":28,"refTime":"2025-01-20T03:00:00:Z","depth":0,"parameterNumber":2,"parameterNumberName":"U-component_of_WINDS"},"data":[0,0,0,0,0,0,0,0,0,0,0,0,0,0,0,0,0,0,0,0,0,0,0,0,0,0,0,0,0,0,0,0,0,0,0,0,0,0,0,0,0,0,0,0,0,0,0,0,0,0,0,0,0,0,0,0,0,0,-3.1682,-3.1682,0,-3.1735,-3.1736,-3.1736,-3.1647,-3.1644,-3.1641,-3.1639,-3.1695,-3.1699,-3.1703,0,0,0,0,0,0,0,0,0,0,0,0,0,-3.1504,-3.1508,-3.1682,-3.1682,-3.1683,-3.1735,-3.1736,-3.1736,-3.1648,-3.1644,-3.1641,-3.1637,-3.1693,-3.1699,-3.1704,0,0,0,0,0,0,0,0,0,0,0,0,0,-3.1572,-3.1509,-3.1682,-3.1645,-3.1642,-3.1735,-3.1736,-3.1737,-3.1649,-3.1644,-3.164,-3.1635,-3.1692,-3.1698,-3.1704,-3.1836,0,0,-3.1724,-3.1727,0,0,0,0,0,0,0,0,-3.1568,-3.1578,-3.165,-3.1648,-3.1645,-3.168,-3.1693,-3.177,-3.165,-3.1646,-3.1638,-3.1633,-3.1694,-3.17,-3.172,-3.1838,-3.1841,-3.1725,-3.1729,-3.1732,-3.1733,0,0,0,0,0,0,0,-3.1563,-3.1576,-3.1703,-3.1651,-3.1648,-3.1626,-3.1631,-3.1708,-3.1695,-3.1646,-3.164,-3.1647,-3.1691,-3.1714,-3.172,-3.1841,-3.1725,-3.173,-3.1734,-3.1737,-3.2069,-3.2074,0,0,0,0,0,0,-3.1563,-3.1572,-3.1701,-3.1704,-3.1594,-3.1633,-3.1638,-3.1673,-3.1694,-3.1693,-3.1651,-3.1643,-3.1705,-3.1713,-3.1722,-3.1877,-3.1732,-3.1738,-3.1741,-3.2064,-3.207,-3.2075,0,0,0,0,0,0,-3.156,-3.1575,-3.1699,-3.1637,-3.1651,-3.1641,-3.1681,-3.1677,-3.1699,-3.1698,-3.1695,-3.1676,-3.1702,-3.1713,-3.1808,-3.1878,-3.1741,-3.1746,-3.2058,-3.2066,-3.2073,-3.2188,0,0,0,0,0,0,-3.1555,-3.1575,-3.1625,-3.1638,-3.1654,-3.1784,-3.1685,-3.1681,-3.171,-3.17,-3.172,-3.172,-3.1699,-3.1799,-3.1814,-3.1884,-3.1752,-3.2052,-3.2062,-3.207,-3.2178,-3.2199,-3.2216,0,0,0,0,0,-3.1549,-3.1656,-3.1628,-3.1644,-3.1716,-3.1788,-3.1798,-3.1771,-3.1716,-3.1766,-3.1765,-3.1719,-3.1867,-3.1809,-3.1826,-3.1899,-3.2048,-3.2059,-3.207,-3.217,-3.2195,-3.2216,0,0,0,0,0,0,-3.1651,-3.1657,-3.1626,-3.174,-3.1764,-3.1773,-3.1836,-3.1799,-3.184,-3.1829,-3.1794,-3.18,-3.1902,-3.1909,-3.1844,-3.2026,-3.1948,-3.1963,-3.2018,-3.2042,-3.2061,-3.2058,-3.1757,0,0,0,0,0,-3.1687,-3.1745,-3.1746,-3.1847,-3.186,-3.1846,-3.1877,-3.1854,-3.1878,-3.1888,-3.1894,-3.1919,-3.1971,-3.2006,-3.2054,-3.2178,-3.2181,-3.2236,-3.2255,-3.2271,-3.2285,-3.235,-3.2375,-3.2112,-3.2112,-3.2112,0,0,-3.1762,-3.1772,-3.1811,-3.1868,-3.1884,-3.1945,-3.1856,-3.1924,-3.1969,-3.1898,-3.1989,-3.1993,-3.2019,-3.2129,-3.2177,-3.2138,-3.2358,-3.2285,-3.2297,-3.2303,-3.2364,-3.2389,-3.2411,-3.2119,-3.2118,-3.2117,0,0,-3.193,-3.1943,-3.2028,-3.2046,-3.2071,-3.206,-3.208,-3.2095,-3.2095,-3.2184,-3.2133,-3.2185,-3.2276,-3.2296,-3.2319,-3.2492,-3.2451,-3.2508,-3.2608,-3.2673,-3.2693,-3.2712,-3.2774,-3.2797,-3.2521,-3.2522,-3.2522,0,-3.202,-3.211,-3.2077,-3.2149,-3.2175,-3.2113,-3.2199,-3.2217,-3.2257,-3.2277,-3.2232,-3.2344,-3.2357,-3.247,-3.2512,-3.2532,-3.2555,-3.2507,-3.2693,-3.2711,-3.2727,-3.2787,-3.281,-3.2529,-3.2528,-3.2527,-3.2526,0,-3.222,-3.2282,-3.2348,-3.2387,-3.2421,-3.25,-3.2479,-3.2517,-3.249,-3.2484,-3.2576,-3.2588,-3.2638,-3.2662,-3.2638,-3.2772,-3.2747,-3.2698,-3.2619,-3.276,-3.2815,-3.2838,-3.2538,-3.2536,-3.2534,-3.2532,0,0,-3.2457,-3.2475,-3.25,-3.2517,-3.2538,-3.2586,-3.2661,-3.2708,-3.2742,-3.2771,-3.2833,-3.291,-3.2864,-3.289,-3.2866,-3.2922,-3.3059,-3.2866,-3.2866,-3.2903,-3.3209,-3.3247,-3.3274,-3.3031,-3.3035,-3.3039,-3.3207,0,-3.2625,-3.2755,-3.2726,-3.2854,-3.2911,-3.2851,-3.2917,-3.2937,-3.2933,-3.2981,-3.2976,-3.3032,-3.2966,-3.2981,-3.3034,-3.3032,-3.3121,-3.3019,-3.309,-3.3093,-3.3088,-3.3303,-3.3344,-3.3503,-3.3228,-3.3232,-3.3235,0,-3.2839,-3.2875,-3.3009,-3.302,-3.3043,-3.3102,-3.3143,-3.3189,-3.321,-3.3203,-3.3231,-3.3196,-3.327,-3.3188,-3.329,-3.3222,-3.3248,-3.3252,-3.3257,-3.3265,-3.3174,-3.3318,-3.3553,-3.3577,-3.3268,-3.3266,-3.3263,0,-3.3001,-3.3082,-3.3172,-3.3188,-3.3203,-3.3246,-3.3255,-3.3271,-3.3301,-3.3336,-3.3355,-3.3399,-3.3423,-3.3457,-3.3435,-3.3377,-3.3541,-3.3457,-3.3538,-3.3539,-3.3578,-3.3576,-3.3822,-3.3592,-3.3591,-3.3591,-3.359,0,-3.3193,-3.3277,-3.3245,-3.3301,-3.3393,-3.3359,-3.3451,-3.3452,-3.3467,-3.3522,-3.3472,-3.3525,-3.3491,-3.3541,-3.3523,-3.3611,-3.3622,-3.3618,-3.3613,-3.3624,-3.3625,-3.3643,-3.3633,-3.3597,-3.3596,-3.3595,-3.3593,0,-3.339,-3.3372,-3.3466,-3.3472,-3.3475,-3.3543,-3.3548,-3.36,-3.359,-3.3661,-3.3675,-3.3661,-3.3717,-3.3697,-3.3757,-3.3745,-3.3857,-3.3836,-3.385,-3.3846,-3.3928,-3.3921,-3.4196,-3.423,-3.3977,-3.3979,-3.3981,0,-3.3515,-3.3578,-3.359,-3.3623,-3.3635,-3.3688,-3.3718,-3.3686,-3.3719,-3.3747,-3.3795,-3.3846,-3.3886,-3.3978,-3.3973,-3.4018,-3.3999,-3.4092,-3.4006,-3.4015,-3.4003,-3.4,-3.4006,-3.4111,-3.4114,-3.4116,-3.4118,0,-3.3739,-3.3726,-3.3771,-3.3812,-3.3848,-3.388,-3.3906,-3.3936,-3.3905,-3.3944,-3.4,-3.4031,-3.4091,-3.4142,-3.4182,-3.4191,-3.415,-3.4144,-3.4166,-3.4179,-3.4185,-3.4184,-3.3899,-3.4139,-3.4137,-3.4136,-3.4134,-3.4134,-3.3905,-3.3958,-3.3975,-3.4026,-3.4042,-3.4067,-3.4116,-3.4112,-3.4158,-3.4204,-3.4182,-3.4247,-3.4265,-3.4314,-3.4328,-3.4378,-3.4343,-3.4373,-3.4381,-3.439,-3.4401,-3.4175,-3.4385,-3.4385,-3.4384,-3.4384,-3.4383,0,-3.4128,-3.4135,-3.4182,-3.422,-3.426,-3.4215,-3.4242,-3.4279,-3.4336,-3.4356,-3.4395,-3.4459,-3.4508,-3.4506,-3.4552,-3.4592,-3.4575,-3.4606,-3.4604,-3.4606,-3.443,-3.4408,-3.4619,-3.4619,-3.4619,-3.4619,-3.4619,-3.4619,-3.4249,-3.4337,-3.4326,-3.4421,-3.4426,-3.4489,-3.4508,-3.4531,-3.4547,-3.4621,-3.4661,-3.4658,-3.467,-3.4715,-3.4758,-3.4756,-3.4776,-3.4814,-3.4806,-3.4642,-3.4619,-3.4596,-3.4575,-3.4818,-3.4818,-3.4977,-3.4979,-3.498]},{"header":{"parameterUnit":"m.s-1","parameterCategory":1,"la1":30.2991,"la2":30.254,"lo1":-89.0895,"lo2":-89.0444,"dy":0.0017,"dx":0.0017,"nx":28,"ny":28,"refTime":"2025-01-20T03:00:00:Z","depth":0,"parameterNumber":3,"parameterNumberName":"V-component_of_WINDS"},"data":[0,0,0,0,0,0,0,0,0,0,0,0,0,0,0,0,0,0,0,0,0,0,0,0,0,0,0,0,0,0,0,0,0,0,0,0,0,0,0,0,0,0,0,0,0,0,0,0,0,0,0,0,0,0,0,0,0,0,-6.0812,-6.0812,0,-6.0855,-6.0856,-6.0856,-6.0793,-6.0791,-6.0789,-6.0787,-6.0829,-6.0832,-6.0835,0,0,0,0,0,0,0,0,0,0,0,0,0,-6.067,-6.0673,-6.0812,-6.0812,-6.0813,-6.0855,-6.0856,-6.0857,-6.0794,-6.0791,-6.0788,-6.0786,-6.0828,-6.0832,-6.0836,0,0,0,0,0,0,0,0,0,0,0,0,0,-6.0725,-6.0674,-6.0812,-6.0787,-6.0785,-6.0855,-6.0856,-6.0857,-6.0794,-6.0791,-6.0787,-6.0784,-6.0827,-6.0831,-6.0836,-6.0932,0,0,-6.0851,-6.0853,0,0,0,0,0,0,0,0,-6.0722,-6.073,-6.079,-6.0789,-6.0787,-6.0815,-6.0822,-6.0882,-6.0795,-6.0791,-6.0787,-6.0783,-6.0827,-6.0832,-6.0847,-6.0934,-6.0936,-6.0851,-6.0854,-6.0856,-6.0857,0,0,0,0,0,0,0,-6.0718,-6.0728,-6.0829,-6.0791,-6.0789,-6.0772,-6.0776,-6.0833,-6.0827,-6.0791,-6.0786,-6.0792,-6.0825,-6.0843,-6.0848,-6.0937,-6.0851,-6.0855,-6.0858,-6.086,-6.1103,-6.1106,0,0,0,0,0,0,-6.0718,-6.0725,-6.0828,-6.083,-6.0745,-6.0777,-6.0782,-6.081,-6.0826,-6.0825,-6.0795,-6.0789,-6.0836,-6.0842,-6.0849,-6.0961,-6.0856,-6.0861,-6.0863,-6.1099,-6.1103,-6.1107,0,0,0,0,0,0,-6.0715,-6.0728,-6.0826,-6.0777,-6.0788,-6.0783,-6.0815,-6.0812,-6.0829,-6.083,-6.0828,-6.0814,-6.0834,-6.0842,-6.0912,-6.0961,-6.0863,-6.0867,-6.1095,-6.11,-6.1105,-6.1187,0,0,0,0,0,0,-6.0711,-6.0727,-6.0765,-6.0778,-6.0791,-6.0889,-6.0818,-6.0815,-6.0838,-6.0831,-6.0847,-6.0846,-6.0832,-6.0905,-6.0916,-6.0966,-6.0871,-6.109,-6.1097,-6.1104,-6.118,-6.1194,-6.1207,0,0,0,0,0,-6.0706,-6.0786,-6.0767,-6.078,-6.0838,-6.0893,-6.09,-6.0882,-6.0842,-6.0879,-6.0879,-6.0846,-6.0954,-6.0912,-6.0925,-6.0977,-6.1087,-6.1095,-6.1103,-6.1174,-6.1191,-6.1207,0,0,0,0,0,0,-6.0778,-6.0787,-6.0766,-6.0853,-6.0872,-6.0882,-6.0928,-6.0902,-6.0933,-6.0925,-6.0901,-6.0905,-6.0979,-6.0985,-6.0938,-6.107,-6.1014,-6.1025,-6.1063,-6.108,-6.1094,-6.109,-6.0875,0,0,0,0,0,-6.0804,-6.0849,-6.0854,-6.093,-6.0941,-6.0933,-6.0956,-6.0941,-6.096,-6.0968,-6.0972,-6.0992,-6.103,-6.1055,-6.1091,-6.118,-6.1182,-6.1222,-6.1236,-6.1247,-6.1256,-6.1302,-6.1319,-6.1133,-6.1133,-6.1133,0,0,-6.0858,-6.0869,-6.0898,-6.0944,-6.0958,-6.1003,-6.094,-6.0991,-6.1024,-6.0975,-6.1041,-6.1045,-6.1064,-6.1144,-6.1179,-6.1151,-6.1308,-6.1257,-6.1266,-6.1269,-6.1312,-6.1329,-6.1345,-6.1139,-6.1138,-6.1137,0,0,-6.0979,-6.0993,-6.1056,-6.1071,-6.1092,-6.1086,-6.1101,-6.1114,-6.1115,-6.1181,-6.1144,-6.1182,-6.1249,-6.1264,-6.128,-6.1405,-6.1375,-6.1417,-6.1488,-6.1533,-6.1547,-6.156,-6.1603,-6.1619,-6.1427,-6.1427,-6.1427,0,-6.1044,-6.1112,-6.1092,-6.1145,-6.1166,-6.1123,-6.1186,-6.1201,-6.1233,-6.1247,-6.1215,-6.1297,-6.1307,-6.1388,-6.1419,-6.1434,-6.1449,-6.1415,-6.1547,-6.156,-6.1571,-6.1612,-6.1628,-6.1432,-6.1432,-6.1431,-6.1431,0,-6.1188,-6.1236,-6.1284,-6.1316,-6.1342,-6.14,-6.1387,-6.1415,-6.1398,-6.1394,-6.146,-6.1471,-6.1507,-6.1525,-6.1509,-6.1604,-6.1585,-6.1551,-6.1494,-6.1594,-6.1632,-6.1647,-6.1439,-6.1437,-6.1436,-6.1435,0,0,-6.1357,-6.1375,-6.1393,-6.1406,-6.1425,-6.1461,-6.1516,-6.1551,-6.1575,-6.1598,-6.1642,-6.1699,-6.1667,-6.1685,-6.167,-6.1709,-6.1805,-6.1669,-6.1669,-6.1693,-6.1908,-6.1933,-6.1951,-6.1785,-6.1788,-6.179,-6.1906,0,-6.1476,-6.1572,-6.1555,-6.1648,-6.169,-6.1649,-6.1697,-6.1713,-6.1711,-6.1746,-6.1743,-6.1783,-6.1739,-6.1749,-6.1787,-6.1785,-6.1847,-6.1777,-6.1824,-6.1826,-6.182,-6.1971,-6.1998,-6.2106,-6.192,-6.1923,-6.1925,0,-6.1629,-6.1657,-6.1754,-6.1764,-6.1781,-6.1825,-6.1854,-6.1889,-6.1905,-6.1901,-6.1921,-6.1897,-6.195,-6.1893,-6.1965,-6.1917,-6.1936,-6.1938,-6.1942,-6.1944,-6.1881,-6.1976,-6.2141,-6.2156,-6.1948,-6.1946,-6.1944,0,-6.1739,-6.1801,-6.1867,-6.1879,-6.1894,-6.1925,-6.1932,-6.1946,-6.1967,-6.1993,-6.2006,-6.2038,-6.2055,-6.2079,-6.2064,-6.2025,-6.2138,-6.208,-6.2134,-6.2135,-6.2159,-6.2157,-6.2327,-6.2174,-6.2173,-6.2173,-6.2173,0,-6.1874,-6.1934,-6.1916,-6.1957,-6.2022,-6.2001,-6.2066,-6.2069,-6.2081,-6.212,-6.2087,-6.2124,-6.2102,-6.2137,-6.2125,-6.2185,-6.2193,-6.219,-6.2186,-6.2192,-6.2192,-6.2203,-6.2194,-6.2177,-6.2176,-6.2176,-6.2175,0,-6.2008,-6.1999,-6.2067,-6.2075,-6.2079,-6.2126,-6.2132,-6.2169,-6.2164,-6.2213,-6.2224,-6.2216,-6.2255,-6.2242,-6.2284,-6.2276,-6.2352,-6.2339,-6.2346,-6.2343,-6.2397,-6.2391,-6.2578,-6.26,-6.2434,-6.2436,-6.2437,0,-6.2094,-6.214,-6.2152,-6.2176,-6.2185,-6.2224,-6.2246,-6.2226,-6.225,-6.2272,-6.2305,-6.2341,-6.2369,-6.2433,-6.243,-6.2461,-6.2448,-6.2511,-6.2452,-6.2456,-6.2447,-6.2443,-6.2447,-6.2522,-6.2524,-6.2526,-6.2527,0,-6.2247,-6.224,-6.2272,-6.2303,-6.233,-6.2353,-6.2373,-6.2394,-6.2376,-6.2404,-6.2443,-6.2465,-6.2507,-6.2542,-6.2571,-6.2577,-6.2549,-6.2546,-6.256,-6.2566,-6.2567,-6.2565,-6.2377,-6.2541,-6.254,-6.2539,-6.2538,-6.2538,-6.2358,-6.2396,-6.241,-6.2447,-6.246,-6.2479,-6.2513,-6.2512,-6.2545,-6.2578,-6.2564,-6.2609,-6.2623,-6.2658,-6.2667,-6.2701,-6.2677,-6.2697,-6.2702,-6.2707,-6.2713,-6.2563,-6.2707,-6.2706,-6.2706,-6.2705,-6.2705,0,-6.2508,-6.2514,-6.2549,-6.2577,-6.2606,-6.2578,-6.2598,-6.2623,-6.2663,-6.2679,-6.2706,-6.275,-6.2784,-6.2784,-6.2815,-6.2842,-6.283,-6.2851,-6.2848,-6.2849,-6.2734,-6.2719,-6.286,-6.286,-6.286,-6.286,-6.286,-6.286,-6.2589,-6.265,-6.2644,-6.2711,-6.2716,-6.276,-6.2774,-6.2791,-6.2803,-6.2854,-6.2882,-6.2881,-6.289,-6.2921,-6.295,-6.2949,-6.2961,-6.2987,-6.2981,-6.2873,-6.2858,-6.2843,-6.2828,-6.299,-6.299,-6.3092,-6.3093,-6.3094]}]]